Regional Weather Roundup
Issued by NWS

Home | Current Version | Previous Version | Text Only | Print | Product List | Glossary On
Versions: 1 2 3 4 5 6 7 8 9 10 11 12 13 14 15 16 17 18 19 20 21 22 23 24 25 26 27 28 29 30 31 32 33 34 35 36 37 38 39 40 41 42 43 44 45 46 47 48 49 50
000
ASUS43 KDTX 241101
RWRMI
MICHIGAN HOURLY REGIONAL WEATHER ROUNDUP
NATIONAL WEATHER SERVICE DETROIT/PONTIAC MI
700 AM EDT SUN JUL 24 2016

NOTE: "FAIR" INDICATES FEW OR NO CLOUDS BELOW 12,000 FEET WITH NO
SIGNIFICANT WEATHER AND/OR OBSTRUCTION TO VISIBILITY.

MIZ047>049-052>055-059>063-066>070-074>076-081>083-241200-
SOUTHEAST LOWER MICHIGAN

CITY           SKY/WX    TMP DP  RH WIND       PRES   REMARKS
ADRIAN         CLOUDY    73  72  96 CALM      29.95F
ALMA           CLOUDY    73  71  92 CALM      29.91F
ANN ARBOR      CLOUDY    75  70  84 CALM      29.93F
BAD AXE        CLOUDY    71  58  63 SE7       29.95F
CARO           CLOUDY    72  58  61 CALM      29.93F
DETROIT CITY   MOCLDY    75  68  78 SE5       29.95F
DETROIT        CLOUDY    78  69  73 E7        29.94F
FLINT          CLOUDY    80  61  52 SW5       29.93F
GROSSE ILE     CLOUDY    77  70  79 SE5       29.93F
HOWELL         PTCLDY    74  67  76 E8        29.92F

CITY           SKY/WX    TMP DP  RH WIND       PRES   REMARKS
JACKSON        MOCLDY    72  72 100 CALM      29.95R
LAMBERTVILLE   CLOUDY    76  69  78 CALM      29.95F
LANSING        CLOUDY    72  69  90 CALM      29.92F
LAPEER         FAIR      75  56  52 S6        29.95F
MASON          CLOUDY    70  68  95 CALM      29.93S
MONROE         MOCLDY    78  70  74 SE6       29.92F
MT. CLEMENS    CLOUDY    73  69  86 SE5       29.94F
PONTIAC        CLOUDY    77  65  66 SE8       29.94F
PORT HOPE        N/A     74  59  59 S8        29.93F
PORT HURON     CLOUDY    66  63  88 SE3       29.97S
TRI CITIES     CLOUDY    74  64  71 S5        29.93F
MIDLAND        CLOUDY    70  67  90 N6        29.90F
TROY           CLOUDY    76  61  59 CALM      29.97F
SAGINAW HB     CLOUDY    72  63  73 S3        29.92F
$$
MIZ043>046-050>051-056>058-064>065-071>073-077>080-241200-
SOUTHWEST LOWER MICHIGAN

CITY           SKY/WX    TMP DP  RH WIND       PRES   REMARKS
BATTLE CREEK   CLOUDY    70  70 100 S5        29.94F
BENTON HARBOR  CLOUDY    72  69  90 S6        29.92S
BIG RAPIDS     LGT RAIN  72  71  95 CALM      29.92S
COLDWATER      CLOUDY    72  72 100 CALM      29.96R FOG
FREMONT        HVY RAIN  70  70 100 W3        29.95R
HOLLAND        CLOUDY    72  70  93 SE8       29.91S
GRAND RAPIDS   TSTM      72  70  93 S6        29.93F FOG
IONIA          MOCLDY    71  68  89 SW5       29.91F
KALAMAZOO      LGT RAIN  73  70  90 S5        29.92F
LUDINGTON      RAIN      69  69  99 S8        29.90R
MARSHALL       CLOUDY    72  70  94 CALM      29.93F
MOUNT PLEASANT CLOUDY    74  68  79 CALM      29.92F
MUSKEGON       TSTM      73  71  93 SE12      29.91F FOG
SOUTH HAVEN    CLOUDY    71  71  98 S5        29.92S
$$
MIZ016>042-241200-
NORTHERN LOWER MICHIGAN

CITY           SKY/WX    TMP DP  RH WIND       PRES   REMARKS
ALPENA         CLOUDY    70  59  68 SE7       29.92F
BEAVER ISLAND  CLOUDY    68  68  99 SE7       29.85F
BELLAIRE       CLOUDY    74  64  70 S6        29.88F
CADILLAC       LGT RAIN  70  67  91 SW5       29.93S
CHARLEVOIX     CLOUDY    73  64  73 SE3       29.90F
FRANKFORT      CLOUDY    71  68  88 S6        29.88S
GAYLORD        CLOUDY    73  61  65 S7        29.92F
GRAYLING       CLOUDY    74  66  76 S6        29.94S
HARBOR SPRINGS LGT RAIN  69  67  93 CALM      29.87F
HOUGHTON LAKE  CLOUDY    72  65  78 S9        29.95S
MANISTEE       RAIN      70  68  93 VRB5      29.88F FOG
OSCODA         CLOUDY    70  62  76 S3        29.93F
PELLSTON       LGT RAIN  68  64  87 NE6       29.89S
ROGERS CITY    MOCLDY    71  58  61 S9G16     29.91S
TRAVERSE CITY  CLOUDY    75  68  78 S5        29.87S
$$
MIZ007>008-015-241200-
EASTERN UPPER MICHIGAN

CITY           SKY/WX    TMP DP  RH WIND       PRES   REMARKS
KINROSS        RAIN      66  63  90 E5        29.92R
MACKINAC ISLAN RAIN      65  65 100 CALM      29.91R
NEWBERRY       LGT RAIN  65  64  97 E3        29.88F
S. S. MARIE    LGT RAIN  67  64  90 E6        29.92R
MUNISING         N/A     67  66  97 VRB6      29.80F
$$
MIZ004>006-011>014-085-241200-
CENTRAL UPPER MICHIGAN

CITY           SKY/WX    TMP DP  RH WIND       PRES   REMARKS
MANISTIQUE     CLOUDY    67  66  97 E5        29.83F
ESCANABA       CLOUDY    72  70  94 S5        29.81R
MENOMINEE      CLOUDY    72  71  97 CALM      29.82S
SAWYER-GWINN   CLOUDY    64  63  94 S8        29.82S
$$
MIZ001>003-009>011-084-241200-
WESTERN UPPER MICHIGAN

CITY           SKY/WX    TMP DP  RH WIND       PRES   REMARKS
IRON MOUNTAIN  CLOUDY    69  67  93 CALM      29.82R FOG
HOUGHTON       FOG       65  63  93 VRB3      29.75F VSB 1/4
COPPER HARBOR    N/A     67  66  97 VRB5      29.75F
IRONWOOD       CLOUDY    70  66  88 NW12      29.71R
$$

ABBREVIATIONS USED IN REMARKS
   TC - TEMPERATURE IN CELSIUS
  WCI - WIND CHILL INDEX
   HX - HEAT INDEX
  VSB - VISIBILITY




USA.gov is the U.S. government's official web portal to all federal, state and local government web resources and services.